Regional Weather Roundup
Issued by NWS

Home | Current Version | Previous Version | Text Only | Print | Product List | Glossary On
Versions: 1 2 3 4 5 6 7 8 9 10 11 12 13 14 15 16 17 18 19 20 21 22 23 24 25 26 27 28 29 30 31 32 33 34 35 36 37 38 39 40 41 42 43 44 45 46 47 48 49 50
000
ASUS43 KOAX 230902
RWRNE

WEATHER ROUNDUP FOR NEBRASKA
NATIONAL WEATHER SERVICE OMAHA NE
400 AM CDT TUE SEP 23 2014

NOTES: SATELLITE DATA IS BEING USED TO AUGMENT CLOUD COVER ABOVE
       12000 FEET.
       "FAIR" INDICATES FEW OR NO CLOUDS BELOW 12,000 FEET WITH NO
       SIGNIFICANT WEATHER AND/OR OBSTRUCTIONS TO VISIBILITY.

  * THESE STATIONS DO NOT REPORT WEATHER SUCH AS RAIN...SNOW OR FOG.

NEZ001>004-019>022-054>056-231000-
NEBRASKA PANHANDLE

CITY           SKY/WX    TMP DP  RH WIND       PRES   REMARKS
SCOTTSBLUFF    CLEAR     52  50  93 CALM      30.00F
ALLIANCE       CLEAR     49  48  97 S5        29.98F
CHADRON        PTCLDY    53  52  96 SW5       29.93F
KIMBALL        PTCLDY    56  49  77 SW10      30.06S
SIDNEY         CLOUDY    59  56  89 SW10      30.05F
$$

NEZ057>060-069>072-079>082-231000-
SOUTHWEST NEBRASKA

CITY           SKY/WX    TMP DP  RH WIND       PRES   REMARKS
NORTH PLATTE   CLOUDY    56  54  93 SE7       30.03S
IMPERIAL       MOCLDY    57  54  89 SW7       30.04S
LEXINGTON      CLOUDY    57  55  93 SE8       30.05S
MCCOOK         CLOUDY    59  57  93 CALM      30.06R
OGALLALA       PTCLDY    58  56  94 SE3       30.00F
$$

NEZ005>010-023>029-035>040-094-231000-
NORTH CENTRAL NEBRASKA

CITY           SKY/WX    TMP DP  RH WIND       PRES   REMARKS
VALENTINE      MOCLDY    56  52  86 S12       29.99F
AINSWORTH      MOCLDY    56  52  86 S20       30.01F
BROKEN BOW     CLOUDY    57  53  86 SE6       30.06R
O`NEILL        LGT RAIN  58  56  95 SE17G23   30.08F
ORD            CLOUDY    57  53  86 SE8       30.09S
$$

NEZ041-046>049-061>064-073>077-083>087-231000-
SOUTH CENTRAL NEBRASKA

CITY           SKY/WX    TMP DP  RH WIND       PRES   REMARKS
GRAND ISLAND   LGT RAIN  58  53  84 SE10      30.11F
AURORA         CLOUDY    59  53  80 S13       30.12F
HASTINGS       LGT RAIN  57  52  83 SE12      30.11F
HEBRON         LGT RAIN  59  53  79 CALM      30.17R
HOLDREGE       LGT RAIN  56  54  93 SE9       30.08S
KEARNEY *      CLOUDY    55  54  94 S12       30.09S
YORK           CLOUDY    57  55  94 S7        30.14F
$$

NEZ011>018-030>034-042>045-231000-
NORTHEAST NEBRASKA

CITY           SKY/WX    TMP DP  RH WIND       PRES   REMARKS
NORFOLK        RAIN      58  54  86 SW10      30.13F
ALBION         CLOUDY    56  54  92 SE6       30.12F
BLAIR          CLOUDY    63  52  67 S9        30.15S
COLUMBUS *     CLOUDY    57  54  88 S3        30.15F
FREMONT        CLOUDY    63  51  66 S7        30.15F
TEKAMAH        LGT RAIN  58  55  90 S5        30.15S
WAYNE          CLOUDY    59  54  83 S7        30.12F
$$

NEZ050>053-065>068-078-088>093-231000-
SOUTHEAST NEBRASKA

CITY           SKY/WX    TMP DP  RH WIND       PRES   REMARKS
LINCOLN        MOCLDY    60  51  72 S5        30.17S
OMAHA EPPLEY   CLOUDY    62  51  67 S12       30.16F
BEATRICE       CLOUDY    60  51  73 SE6       30.15S
FALLS CITY     MOCLDY    58  52  80 S8        30.17F
NEBRASKA CITY    N/A     58  49  69 S6        30.17F
PLATTSMOUTH    CLOUDY    58  52  79 SE6       30.16F
$$

NEZ044-045-051>053-067-231000-
OMAHA AREA

CITY           SKY/WX    TMP DP  RH WIND       PRES   REMARKS
OMAHA EPPLEY   CLOUDY    62  51  67 S12       30.16F
BLAIR          CLOUDY    63  52  67 S9        30.15S
FREMONT        CLOUDY    63  51  66 S7        30.15F
MILLARD        CLOUDY    61  53  74 SE3       30.15F
OFFUTT AFB     CLOUDY    60  59  97 SE8       30.15F
PLATTSMOUTH    CLOUDY    58  52  79 SE6       30.16F
WAHOO          FAIR      59  52  78 S5        30.15F
$$


USA.gov is the U.S. government's official web portal to all federal, state and local government web resources and services.